1514066400.29,61868,8.38,73186.3,-2.19,-2.63,-2.71,0,*58
1514066401.53,61869,8.38,73176.3,-2.19,-2.71,-2.59,0,*50
1514066402.79,61870,8.38,73170.8,-2.17,-2.67,-2.59,0,*51
1514066404.04,61871,8.38,73170.8,-2.19,-2.71,-2.71,0,*53
1514066405.31,61872,8.38,73176.5,-2.17,-2.67,-2.59,0,*53
1514066406.55,61873,8.38,73184.8,-2.19,-2.71,-2.71,0,*51
1514066407.8,61874,8.38,73194.3,-2.19,-2.71,-2.71,0,*56
1514066409.07,61875,8.38,73208.8,-2.17,-2.71,-2.63,0,*5A
1514066410.32,61876,8.38,73218.8,-2.19,-2.71,-2.63,0,*57
1514066411.56,61877,8.38,73222.0,-2.19,-2.71,-2.75,0,*51
1514066412.83,61878,8.38,73230.3,-2.17,-2.67,-2.67,0,*54
1514066414.08,61879,8.38,73228.0,-2.19,-2.75,-2.71,0,*5F
1514066415.33,61880,8.38,73218.5,-2.19,-2.71,-2.71,0,*5D
1514066416.57,61881,8.38,73206.8,-2.19,-2.75,-2.71,0,*58
1514066417.84,61882,8.38,73214.0,-2.17,-2.67,-2.67,0,*51
1514066419.09,61883,8.38,73214.3,-2.19,-2.71,-2.63,0,*5D
1514066420.34,61884,8.38,73174.8,-2.19,-2.71,-2.63,0,*5A
1514066421.61,61885,8.38,73212.3,-2.17,-2.71,-2.67,0,*51
1514066422.88,61886,8.38,73228.5,-2.17,-2.71,-2.67,0,*52
1514066424.13,61887,8.38,73204.8,-2.19,-2.71,-2.71,0,*5A
1514066425.37,61888,8.38,73218.5,-2.19,-2.67,-2.67,0,*55
1514066426.64,61889,8.38,73216.8,-2.17,-2.67,-2.67,0,*5A
1514066427.91,61890,8.38,73204.8,-2.17,-2.67,-2.67,0,*52
1514066429.16,61891,8.38,73234.5,-2.19,-2.63,-2.71,0,*5E
1514066430.43,61892,8.38,73212.3,-2.17,-2.71,-2.67,0,*57
1514066431.68,61893,8.38,73250.5,-2.19,-2.63,-2.71,0,*5C
1514066432.95,61894,8.38,73268.0,-2.17,-2.67,-2.67,0,*56
1514066434.2,61895,8.38,73258.8,-2.19,-2.75,-2.63,0,*5E
1514066435.44,61896,8.38,73216.5,-2.19,-2.75,-2.63,0,*5D
1514066436.71,61897,8.38,73248.0,-2.17,-2.67,-2.71,0,*52
1514066437.98,61898,8.38,73258.0,-2.17,-2.67,-2.67,0,*5A
1514066439.25,61899,8.38,73272.0,-2.17,-2.67,-2.67,0,*5B
1514066440.52,61900,8.38,73262.3,-2.17,-2.71,-2.67,0,*5D
1514066441.8,61901,8.38,73262.0,-2.17,-2.67,-2.67,0,*5B
1514066443.04,61902,8.38,73268.0,-2.19,-2.75,-2.63,0,*51
1514066444.31,61903,8.38,73274.3,-2.17,-2.67,-2.67,0,*59
1514066445.58,61904,8.38,73274.3,-2.17,-2.67,-2.67,0,*5E
1514066446.85,61905,8.38,73296.5,-2.17,-2.67,-2.67,0,*5F
1514066448.12,61906,8.38,73290.0,-2.17,-2.71,-2.67,0,*5B
1514066449.39,61907,8.38,73268.5,-2.17,-2.67,-2.67,0,*5D
1514066450.66,61908,8.38,73266.8,-2.17,-2.67,-2.59,0,*5F
1514066451.92,61909,8.38,73268.8,-2.17,-2.67,-2.59,0,*5E
1514066453.19,61910,8.38,73260.5,-2.17,-2.67,-2.67,0,*5B
1514066454.46,61911,8.38,73254.5,-2.17,-2.67,-2.59,0,*57
1514066455.73,61912,8.38,73258.3,-2.17,-2.67,-2.67,0,*59
1514066457.0,61913,8.38,73264.3,-2.17,-2.67,-2.67,0,*58
1514066458.27,61914,8.38,73270.0,-2.17,-2.67,-2.67,0,*5F
1514066459.54,61915,8.38,73268.0,-2.17,-2.67,-2.71,0,*59
1514066460.81,61916,8.38,73272.8,-2.17,-2.67,-2.71,0,*5A
1514066462.08,61917,8.38,73264.8,-2.17,-2.67,-2.67,0,*5C
1514066463.35,61918,8.38,73256.8,-2.17,-2.67,-2.67,0,*53
1514066464.62,61919,8.38,73252.0,-2.17,-2.67,-2.67,0,*52
1514066465.86,61920,8.38,73244.8,-2.15,-2.67,-2.67,0,*5A
1514066467.11,61921,8.38,73242.8,-2.15,-2.59,-2.67,0,*56
1514066468.38,61922,8.38,73246.0,-2.17,-2.67,-2.71,0,*5D
1514066469.66,61923,8.38,73246.5,-2.17,-2.71,-2.67,0,*5C
1514066470.92,61924,8.38,73244.8,-2.17,-2.67,-2.59,0,*51
1514066472.19,61925,8.38,73236.5,-2.17,-2.67,-2.67,0,*5D
1514066473.46,61926,8.38,73242.5,-2.17,-2.71,-2.67,0,*59
1514066474.73,61927,8.38,73246.0,-2.17,-2.67,-2.67,0,*5F
1514066476.01,61928,8.38,73248.8,-2.17,-2.71,-2.67,0,*57
1514066477.28,61929,8.38,73236.8,-2.17,-2.71,-2.71,0,*51
1514066478.55,61930,8.38,73222.5,-2.17,-2.67,-2.67,0,*59
1514066479.81,61931,8.38,73220.8,-2.17,-2.67,-2.59,0,*55
1514066481.08,61932,8.38,73226.8,-2.17,-2.67,-2.59,0,*56
1514066482.35,61933,8.38,73200.8,-2.17,-2.67,-2.67,0,*5A
1514066483.62,61934,8.38,73238.3,-2.17,-2.67,-2.67,0,*5D
1514066484.89,61935,8.38,73206.8,-2.17,-2.67,-2.67,0,*5C
1514066486.16,61936,8.38,73170.0,-2.17,-2.71,-2.59,0,*55
1514066487.43,61937,8.38,73192.5,-2.17,-2.71,-2.67,0,*59
1514066488.7,61938,8.38,73222.0,-2.17,-2.67,-2.67,0,*51
1514066489.97,61939,8.38,73208.8,-2.17,-2.71,-2.67,0,*57
1514066491.24,61940,8.38,73202.3,-2.17,-2.67,-2.67,0,*5E
1514066492.49,61941,8.38,73196.5,-2.15,-2.71,-2.71,0,*5D
1514066493.74,61942,8.38,73204.3,-2.15,-2.67,-2.67,0,*5E
1514066494.99,61943,8.38,73184.5,-2.15,-2.67,-2.67,0,*5F
1514066496.24,61944,8.38,73154.8,-2.15,-2.67,-2.71,0,*5F
1514066497.49,61945,8.38,73134.5,-2.15,-2.67,-2.67,0,*59
1514066498.74,61946,8.38,73136.5,-2.15,-2.67,-2.67,0,*5A
1514066499.99,61947,8.38,73160.3,-2.15,-2.67,-2.71,0,*5C
1514066501.26,61948,8.38,73174.0,-2.13,-2.67,-2.67,0,*52
1514066502.51,61949,8.38,73190.5,-2.15,-2.67,-2.67,0,*55
1514066503.76,61950,8.38,73214.3,-2.15,-2.67,-2.71,0,*5A
1514066505.01,61951,8.38,73216.8,-2.15,-2.71,-2.71,0,*5C
1514066506.26,61952,8.38,73198.8,-2.15,-2.67,-2.67,0,*5F
1514066507.51,61953,8.38,73190.0,-2.15,-2.67,-2.59,0,*53
1514066508.78,61954,8.38,73194.8,-2.17,-2.67,-2.67,0,*5B
1514066510.03,61955,8.38,73228.3,-2.15,-2.67,-2.71,0,*5F
1514066511.28,61956,8.38,73222.8,-2.15,-2.67,-2.67,0,*5B
1514066512.53,61957,8.38,73220.5,-2.15,-2.71,-2.67,0,*5D
1514066513.78,61958,8.38,73218.0,-2.15,-2.71,-2.67,0,*52
1514066515.05,61959,8.38,73206.0,-2.13,-2.67,-2.63,0,*56
1514066516.32,61960,8.38,73208.0,-2.17,-2.67,-2.67,0,*5C
1514066517.57,61961,8.38,73204.5,-2.15,-2.67,-2.71,0,*58
1514066518.85,61962,8.38,73220.0,-2.13,-2.63,-2.63,0,*5A
1514066520.12,61963,8.38,73220.3,-2.13,-2.67,-2.67,0,*5B
1514066521.37,61964,8.38,73222.5,-2.15,-2.71,-2.71,0,*5A
1514066522.62,61965,8.38,73264.0,-2.15,-2.67,-2.67,0,*5B
1514066523.87,61966,8.38,73266.5,-2.15,-2.71,-2.71,0,*58
1514066525.14,61967,8.38,73274.5,-2.13,-2.67,-2.63,0,*5B
1514066526.39,61968,8.38,73282.3,-2.15,-2.67,-2.71,0,*51
1514066527.64,61969,8.38,73246.0,-2.15,-2.71,-2.71,0,*57
1514066528.89,61970,8.38,73258.5,-2.15,-2.67,-2.71,0,*58
1514066530.16,61971,8.38,73264.3,-2.13,-2.67,-2.67,0,*58
1514066531.42,61972,8.38,73284.5,-2.15,-2.71,-2.71,0,*5D
1514066532.69,61973,8.38,73286.0,-2.13,-2.63,-2.63,0,*5A
1514066533.94,61974,8.38,73280.0,-2.15,-2.71,-2.67,0,*5C
1514066535.19,61975,8.38,73276.5,-2.15,-2.67,-2.67,0,*5A
1514066536.44,61976,8.38,73236.0,-2.15,-2.67,-2.71,0,*5E
1514066537.7,61977,8.38,73212.8,-2.15,-2.71,-2.67,0,*5F
1514066538.95,61978,8.38,73186.0,-2.15,-2.67,-2.71,0,*50
1514066540.21,61979,8.38,73216.0,-2.17,-2.67,-2.67,0,*54
1514066541.49,61980,8.38,73226.8,-2.13,-2.67,-2.63,0,*52
1514066542.74,61981,8.38,73230.5,-2.15,-2.67,-2.67,0,*51
1514066544.01,61982,8.38,73248.8,-2.13,-2.63,-2.67,0,*50
1514066545.26,61983,8.38,73244.3,-2.15,-2.71,-2.71,0,*53
1514066546.51,61984,8.38,73254.3,-2.15,-2.67,-2.71,0,*53
1514066547.76,61985,8.38,73244.0,-2.15,-2.67,-2.71,0,*52
1514066549.03,61986,8.38,73212.0,-2.13,-2.67,-2.55,0,*51
1514066550.3,61987,8.38,73238.3,-2.13,-2.67,-2.63,0,*55
1514066551.56,61988,8.38,73244.0,-2.15,-2.71,-2.67,0,*5F
1514066552.81,61989,8.38,73238.8,-2.15,-2.71,-2.67,0,*5E
1514066554.08,61990,8.38,73212.3,-2.13,-2.71,-2.67,0,*50
1514066555.35,61991,8.38,73226.3,-2.13,-2.67,-2.67,0,*56
1514066556.6,61992,8.38,73236.3,-2.15,-2.71,-2.67,0,*54
1514066557.86,61993,8.38,73244.8,-2.15,-2.71,-2.71,0,*52
1514066559.13,61994,8.38,73232.3,-2.13,-2.67,-2.67,0,*53
1514066560.38,61995,8.38,73222.3,-2.15,-2.67,-2.71,0,*53
1514066561.65,61996,8.38,73208.8,-2.13,-2.67,-2.67,0,*51
1514066562.92,61997,8.38,73190.8,-2.13,-2.67,-2.63,0,*54
1514066564.19,61998,8.38,73174.3,-2.13,-2.63,-2.67,0,*5B
1514066565.45,61999,8.38,73184.3,-2.15,-2.71,-2.67,0,*5F
1514066566.69,62000,8.38,73184.0,-2.15,-2.67,-2.71,0,*55
1514066567.94,62001,8.38,73178.5,-2.15,-2.67,-2.67,0,*53
1514066569.2,62002,8.38,73182.3,-2.15,-2.71,-2.67,0,*57
1514066570.45,62003,8.38,73182.8,-2.15,-2.71,-2.71,0,*51
1514066571.7,62004,8.38,73182.0,-2.15,-2.67,-2.67,0,*56
1514066572.97,62005,8.38,73180.3,-2.13,-2.67,-2.67,0,*51
1514066574.24,62006,8.38,73170.8,-2.13,-2.67,-2.67,0,*52
1514066575.47,62007,8.38,73188.5,-2.15,-2.79,-2.71,0,*5D
1514066576.71,62008,8.38,73216.0,-2.15,-2.67,-2.67,0,*5A
1514066577.97,62009,8.38,73206.5,-2.15,-2.67,-2.71,0,*5C
1514066579.22,62010,8.38,73214.0,-2.15,-2.71,-2.71,0,*53
1514066580.49,62011,8.38,73212.5,-2.13,-2.67,-2.67,0,*54
1514066581.76,62012,8.38,73222.8,-2.13,-2.63,-2.63,0,*57
1514066583.04,62013,8.38,73228.8,-2.13,-2.63,-2.67,0,*52
1514066584.31,62014,8.38,73224.5,-2.13,-2.67,-2.71,0,*56
1514066585.59,62015,8.38,73230.8,-2.13,-2.63,-2.63,0,*50
1514066586.84,62016,8.38,73236.5,-2.15,-2.67,-2.71,0,*52
1514066588.09,62017,8.38,73236.5,-2.15,-2.67,-2.67,0,*54
1514066589.34,62018,8.38,73250.5,-2.15,-2.71,-2.67,0,*5C
1514066590.59,62019,8.38,73244.0,-2.15,-2.71,-2.71,0,*5A
1514066591.84,62020,8.38,73226.5,-2.15,-2.71,-2.71,0,*50
1514066593.11,62021,8.38,73212.5,-2.13,-2.67,-2.67,0,*57
1514066594.33,62022,8.38,73190.5,-2.15,-2.71,-2.79,0,*5A
1514066595.59,62023,8.38,73210.5,-2.15,-2.71,-2.71,0,*53
1514066596.84,62024,8.38,73196.0,-2.15,-2.71,-2.71,0,*54
1514066598.11,62025,8.38,73224.5,-2.13,-2.67,-2.67,0,*53
1514066599.36,62026,8.38,73236.5,-2.15,-2.67,-2.71,0,*51
1514066600.61,62027,8.38,73172.5,-2.15,-2.67,-2.63,0,*53
1514066601.84,62028,8.38,73202.0,-2.15,-2.79,-2.67,0,*57
1514066603.09,62029,8.38,73206.8,-2.15,-2.67,-2.71,0,*5E
1514066604.34,62030,8.38,73228.8,-2.15,-2.67,-2.71,0,*56
1514066605.61,62031,8.38,73228.3,-2.13,-2.63,-2.63,0,*56
1514066606.87,62032,8.38,73222.5,-2.15,-2.71,-2.67,0,*54
1514066608.13,62033,8.38,73206.0,-2.13,-2.67,-2.67,0,*54
1514066609.39,62034,8.38,73198.3,-2.15,-2.71,-2.71,0,*55
1514066610.66,62035,8.38,73186.0,-2.13,-2.67,-2.63,0,*56
1514066611.93,62036,8.38,73202.0,-2.13,-2.63,-2.63,0,*51
1514066613.2,62037,8.38,73214.5,-2.13,-2.67,-2.67,0,*50
1514066614.48,62038,8.38,73228.0,-2.13,-2.67,-2.67,0,*5F
1514066615.73,62039,8.38,73240.0,-2.15,-2.71,-2.71,0,*58
1514066616.98,62040,8.38,73236.5,-2.15,-2.71,-2.71,0,*56
1514066618.25,62041,8.38,73222.8,-2.13,-2.67,-2.75,0,*52
1514066619.53,62042,8.38,73214.0,-2.13,-2.63,-2.63,0,*52
1514066620.78,62043,8.38,73212.8,-2.15,-2.63,-2.67,0,*51
1514066622.03,62044,8.38,73206.3,-2.15,-2.71,-2.71,0,*52
1514066623.31,62045,8.38,73200.8,-2.13,-2.67,-2.63,0,*51
1514066624.57,62046,8.38,73202.5,-2.13,-2.67,-2.67,0,*56
1514066625.84,62047,8.38,73194.3,-2.13,-2.67,-2.67,0,*57
1514066627.1,62048,8.38,73194.5,-2.15,-2.71,-2.67,0,*59
1514066628.35,62049,8.38,73204.8,-2.15,-2.71,-2.67,0,*58
1514066629.62,62050,8.38,73206.8,-2.13,-2.67,-2.67,0,*51
1514066630.87,62051,8.38,73210.8,-2.15,-2.67,-2.71,0,*51
1514066632.15,62052,8.38,73210.0,-2.13,-2.63,-2.75,0,*54
1514066633.42,62053,8.38,73230.5,-2.13,-2.75,-2.67,0,*51
1514066634.69,62054,8.38,73232.3,-2.13,-2.67,-2.67,0,*55
1514066635.96,62055,8.38,73240.3,-2.13,-2.67,-2.63,0,*50
1514066637.23,62056,8.38,73242.8,-2.13,-2.67,-2.67,0,*57
1514066638.5,62057,8.38,73248.3,-2.13,-2.67,-2.67,0,*56
1514066639.77,62058,8.38,73234.3,-2.13,-2.67,-2.67,0,*59
1514066640.99,62059,8.38,73242.5,-2.15,-2.79,-2.71,0,*56
1514066642.27,62060,8.38,73244.5,-2.13,-2.75,-2.63,0,*55
1514066643.54,62061,8.38,73228.0,-2.13,-2.63,-2.63,0,*53
1514066644.82,62062,8.38,73242.3,-2.13,-2.67,-2.63,0,*54
1514066646.04,62063,8.38,73246.5,-2.15,-2.79,-2.71,0,*5F
1514066647.31,62064,8.38,73248.8,-2.13,-2.67,-2.75,0,*55
1514066648.58,62065,8.38,73242.3,-2.13,-2.67,-2.67,0,*57
1514066649.85,62066,8.38,73234.8,-2.13,-2.67,-2.67,0,*54
1514066651.08,62067,8.38,73230.8,-2.15,-2.79,-2.71,0,*5B
1514066652.35,62068,8.38,73202.0,-2.13,-2.67,-2.67,0,*5A
1514066653.62,62069,8.38,73176.5,-2.13,-2.67,-2.67,0,*5B
1514066654.87,62070,8.38,73186.3,-2.15,-2.71,-2.71,0,*55
1514066656.12,62071,8.38,73218.0,-2.15,-2.71,-2.71,0,*54
1514066657.39,62072,8.38,73218.8,-2.13,-2.67,-2.67,0,*51
1514066658.64,62073,8.38,73222.0,-2.15,-2.67,-2.71,0,*51
1514066659.9,62074,8.38,73204.8,-2.15,-2.71,-2.71,0,*51
1514066661.17,62075,8.38,73212.5,-2.13,-2.67,-2.67,0,*56
1514066662.44,62076,8.38,73198.8,-2.13,-2.63,-2.67,0,*51
1514066663.72,62077,8.38,73180.5,-2.13,-2.63,-2.63,0,*54
1514066664.99,62078,8.38,73202.0,-2.13,-2.67,-2.63,0,*5F
1514066666.26,62079,8.38,73198.5,-2.13,-2.67,-2.67,0,*5A
1514066667.51,62080,8.38,73214.5,-2.15,-2.71,-2.67,0,*5D
1514066668.79,62081,8.38,73210.3,-2.13,-2.63,-2.67,0,*59
1514066670.06,62082,8.38,73218.5,-2.13,-2.67,-2.67,0,*5E
1514066671.33,62083,8.38,73220.8,-2.13,-2.67,-2.67,0,*5F
1514066672.6,62084,8.38,73218.0,-2.13,-2.63,-2.67,0,*5C
1514066673.88,62085,8.38,73212.0,-2.11,-2.63,-2.63,0,*5B
1514066675.14,62086,8.38,73234.5,-2.15,-2.71,-2.71,0,*5C
1514066676.41,62087,8.38,73238.5,-2.13,-2.63,-2.63,0,*5B
1514066677.68,62088,8.38,73216.8,-2.13,-2.67,-2.67,0,*54
1514066678.95,62089,8.38,73222.5,-2.13,-2.67,-2.67,0,*55
1514066680.22,62090,8.38,73244.8,-2.13,-2.67,-2.63,0,*59
1514066681.49,62091,8.38,73236.5,-2.13,-2.67,-2.67,0,*5C
1514066682.77,62092,8.38,73224.5,-2.13,-2.63,-2.67,0,*5B
1514066684.04,62093,8.38,73214.5,-2.13,-2.67,-2.63,0,*5A
1514066685.32,62094,8.38,73200.3,-2.13,-2.63,-2.63,0,*59
1514066686.59,62095,8.38,73222.5,-2.13,-2.63,-2.67,0,*5C
1514066687.86,62096,8.38,73240.0,-2.13,-2.67,-2.63,0,*5F
1514066689.14,62097,8.38,73252.8,-2.13,-2.63,-2.67,0,*5E
1514066690.41,62098,8.38,73256.5,-2.13,-2.67,-2.67,0,*55
1514066691.69,62099,8.38,73272.8,-2.13,-2.63,-2.67,0,*50
1514066692.96,62100,8.38,73266.8,-2.13,-2.67,-2.67,0,*55
1514066694.23,62101,8.38,73260.5,-2.13,-2.67,-2.67,0,*54
1514066695.5,62102,8.38,73258.3,-2.13,-2.67,-2.67,0,*57
1514066696.78,62103,8.38,73268.3,-2.11,-2.63,-2.63,0,*54
1514066698.05,62104,8.38,73242.8,-2.13,-2.63,-2.63,0,*51
1514066699.33,62105,8.38,73234.5,-2.13,-2.63,-2.67,0,*54
1514066700.6,62106,8.38,73252.5,-2.13,-2.67,-2.67,0,*53
1514066701.87,62107,8.38,73226.3,-2.13,-2.63,-2.63,0,*52
1514066703.15,62108,8.38,73228.0,-2.13,-2.63,-2.63,0,*5D
1514066704.42,62109,8.38,73238.5,-2.13,-2.67,-2.67,0,*5C
1514066705.7,62110,8.38,73240.8,-2.13,-2.63,-2.67,0,*50
1514066706.97,62111,8.38,73240.0,-2.13,-2.67,-2.63,0,*51
1514066708.24,62112,8.38,73240.8,-2.13,-2.67,-2.63,0,*52
1514066709.52,62113,8.38,73250.0,-2.13,-2.63,-2.67,0,*53
1514066710.79,62114,8.38,73236.0,-2.13,-2.67,-2.63,0,*54
1514066712.06,62115,8.38,73208.0,-2.13,-2.63,-2.67,0,*55
1514066713.34,62116,8.38,73216.0,-2.11,-2.63,-2.59,0,*59
1514066714.61,62117,8.38,73238.3,-2.13,-2.67,-2.67,0,*53
1514066715.88,62118,8.38,73238.8,-2.13,-2.63,-2.67,0,*58
1514066717.16,62119,8.38,73232.5,-2.13,-2.63,-2.67,0,*59
1514066718.43,62120,8.38,73212.8,-2.13,-2.63,-2.63,0,*57
1514066719.71,62121,8.38,73232.3,-2.13,-2.63,-2.67,0,*52
1514066720.99,62122,8.38,73234.0,-2.11,-2.63,-2.59,0,*5E
1514066722.26,62123,8.38,73242.8,-2.11,-2.63,-2.63,0,*56
1514066723.54,62124,8.38,73244.5,-2.11,-2.59,-2.63,0,*58
1514066724.8,62125,8.38,73238.8,-2.11,-2.59,-2.59,0,*50
1514066726.08,62126,8.38,73216.8,-2.11,-2.63,-2.63,0,*53
1514066727.36,62127,8.38,73184.5,-2.13,-2.63,-2.63,0,*50
1514066728.63,62128,8.38,73194.8,-2.13,-2.63,-2.67,0,*5B
1514066729.9,62129,8.38,73206.5,-2.13,-2.67,-2.67,0,*5E
1514066731.18,62130,8.38,73220.3,-2.13,-2.63,-2.63,0,*56
1514066732.45,62131,8.38,73212.5,-2.11,-2.63,-2.59,0,*5C
1514066733.73,62132,8.38,73236.5,-2.13,-2.63,-2.63,0,*54
1514066735.0,62133,8.38,73250.3,-2.11,-2.63,-2.59,0,*5E
1514066736.28,62134,8.38,73248.8,-2.11,-2.63,-2.63,0,*50
1514066737.55,62135,8.38,73252.3,-2.11,-2.59,-2.59,0,*51
1514066738.83,62136,8.38,73200.5,-2.11,-2.63,-2.63,0,*52
1514066740.11,62137,8.38,73212.0,-2.11,-2.63,-2.63,0,*53
1514066741.38,62138,8.38,73224.5,-2.11,-2.63,-2.59,0,*55
1514066742.65,62139,8.38,73244.3,-2.11,-2.59,-2.63,0,*54
1514066743.92,62140,8.38,73280.5,-2.11,-2.59,-2.63,0,*5A
1514066745.2,62141,8.38,73276.0,-2.11,-2.63,-2.63,0,*52
1514066746.48,62142,8.38,73258.8,-2.11,-2.63,-2.63,0,*51
1514066747.75,62143,8.38,73126.0,-2.11,-2.59,-2.59,0,*50
1514066749.02,62144,8.38,73186.0,-2.11,-2.63,-2.59,0,*5E
1514066750.3,62145,8.38,73198.5,-2.11,-2.63,-2.59,0,*5F
1514066751.57,62146,8.38,73222.8,-2.11,-2.63,-2.63,0,*55
1514066752.85,62147,8.38,73254.8,-2.11,-2.63,-2.59,0,*5D
1514066754.12,62148,8.38,73280.5,-2.11,-2.59,-2.63,0,*52
1514066755.37,62149,8.38,73288.3,-2.09,-2.63,-2.63,0,*53
1514066756.64,62150,8.38,73298.0,-2.11,-2.63,-2.59,0,*5B
1514066757.91,62151,8.38,73286.5,-2.11,-2.59,-2.59,0,*53
1514066759.18,62152,8.38,73258.8,-2.11,-2.59,-2.59,0,*50
1514066760.45,62153,8.38,73256.0,-2.11,-2.59,-2.63,0,*58
1514066761.73,62154,8.38,73246.5,-2.11,-2.63,-2.63,0,*56
1514066763.0,62155,8.38,73226.5,-2.11,-2.59,-2.63,0,*5E
1514066764.28,62156,8.38,73158.0,-2.11,-2.63,-2.63,0,*54
1514066765.56,62157,8.38,73122.3,-2.11,-2.63,-2.63,0,*55
1514066766.83,62158,8.38,73104.5,-2.11,-2.63,-2.59,0,*53
1514066768.08,62159,8.38,73094.0,-2.09,-2.63,-2.63,0,*52
1514066769.35,62160,8.38,73100.5,-2.11,-2.59,-2.63,0,*58
1514066770.63,62161,8.38,73120.0,-2.11,-2.63,-2.59,0,*59
1514066771.9,62162,8.38,73130.8,-2.11,-2.63,-2.59,0,*5A
1514066773.15,62163,8.38,73156.8,-2.09,-2.63,-2.63,0,*5B
1514066774.43,62164,8.38,73186.5,-2.11,-2.63,-2.59,0,*5C
1514066775.68,62165,8.38,73212.5,-2.09,-2.63,-2.63,0,*5D
1514066776.95,62166,8.38,73222.5,-2.11,-2.71,-2.59,0,*5D
1514066778.23,62167,8.38,73228.5,-2.11,-2.63,-2.63,0,*56
1514066779.5,62168,8.38,73228.8,-2.11,-2.63,-2.63,0,*59
1514066780.78,62169,8.38,73238.0,-2.11,-2.63,-2.63,0,*58
1514066782.06,62170,8.38,73238.3,-2.11,-2.63,-2.63,0,*50
1514066783.34,62171,8.38,73242.0,-2.11,-2.63,-2.59,0,*58
1514066784.59,62172,8.38,73242.5,-2.09,-2.63,-2.63,0,*5B
1514066785.86,62173,8.38,73232.5,-2.11,-2.59,-2.63,0,*5A
1514066787.11,62174,8.38,73226.5,-2.09,-2.63,-2.63,0,*5D
1514066788.38,62175,8.38,73216.3,-2.11,-2.63,-2.59,0,*5C
1514066789.66,62176,8.38,73238.0,-2.11,-2.63,-2.63,0,*56
1514066790.91,62177,8.38,73228.8,-2.09,-2.63,-2.63,0,*5E
1514066792.16,62178,8.38,73222.0,-2.09,-2.59,-2.63,0,*58
1514066793.43,62179,8.38,73216.8,-2.11,-2.71,-2.63,0,*5A
1514066794.68,62180,8.38,73228.3,-2.09,-2.59,-2.63,0,*5F
1514066795.93,62181,8.38,73262.3,-2.09,-2.63,-2.63,0,*57
1514066797.21,62182,8.38,73240.3,-2.11,-2.63,-2.63,0,*5D
1514066798.48,62183,8.38,73270.0,-2.11,-2.71,-2.63,0,*5F
1514066799.75,62184,8.38,73250.3,-2.11,-2.59,-2.63,0,*52
1514066801.03,62185,8.38,73244.3,-2.11,-2.63,-2.63,0,*5A
1514066802.28,62186,8.38,73226.5,-2.09,-2.71,-2.63,0,*53
1514066803.53,62187,8.38,73204.0,-2.09,-2.71,-2.63,0,*52
1514066804.78,62188,8.38,73182.8,-2.09,-2.63,-2.71,0,*5D
1514066806.02,62189,8.38,73186.0,-2.09,-2.59,-2.63,0,*56
1514066807.3,62190,8.38,73178.3,-2.11,-2.63,-2.63,0,*5E
1514066808.57,62191,8.38,73188.0,-2.11,-2.59,-2.59,0,*5F
1514066809.84,62192,8.38,73212.8,-2.11,-2.71,-2.63,0,*5F
1514066811.12,62193,8.38,73236.0,-2.11,-2.71,-2.63,0,*5E
1514066812.37,62194,8.38,73292.5,-2.09,-2.63,-2.63,0,*53
1514066813.62,62195,8.38,73256.8,-2.09,-2.71,-2.63,0,*51
1514066814.89,62196,8.38,73226.0,-2.11,-2.59,-2.63,0,*51
1514066816.17,62197,8.38,73242.5,-2.11,-2.63,-2.63,0,*59
1514066817.42,62198,8.38,73258.3,-2.09,-2.63,-2.63,0,*5F
1514066818.67,62199,8.38,73246.5,-2.09,-2.63,-2.63,0,*5E
1514066819.95,62200,8.38,73266.3,-2.11,-2.63,-2.63,0,*54
1514066821.23,62201,8.38,73216.5,-2.11,-2.63,-2.63,0,*55
1514066822.5,62202,8.38,73204.5,-2.11,-2.63,-2.59,0,*5F
1514066823.78,62203,8.38,73252.5,-2.11,-2.63,-2.63,0,*57
1514066825.06,62204,8.38,73218.0,-2.11,-2.63,-2.63,0,*50
1514066826.33,62205,8.38,73206.8,-2.11,-2.63,-2.63,0,*51
1514066827.61,62206,8.38,73194.8,-2.11,-2.63,-2.63,0,*52
1514066828.89,62207,8.38,73214.3,-2.11,-2.63,-2.63,0,*53
1514066830.16,62208,8.38,73298.0,-2.11,-2.59,-2.59,0,*5C
1514066831.41,62209,8.38,73248.8,-2.09,-2.63,-2.63,0,*54
1514066832.69,62210,8.38,73220.8,-2.11,-2.63,-2.63,0,*55
1514066833.97,62211,8.38,73210.0,-2.11,-2.63,-2.63,0,*54
1514066835.22,62212,8.38,73162.8,-2.09,-2.63,-2.63,0,*5E
1514066836.49,62213,8.38,73176.5,-2.11,-2.63,-2.59,0,*5F
1514066837.73,62214,8.38,73214.3,-2.09,-2.59,-2.59,0,*58
1514066838.98,62215,8.38,73248.3,-2.09,-2.63,-2.59,0,*50
1514066840.23,62216,8.38,73262.3,-2.09,-2.63,-2.63,0,*5A
1514066841.47,62217,8.38,73240.8,-2.09,-2.59,-2.63,0,*52
1514066842.75,62218,8.38,73250.8,-2.11,-2.63,-2.59,0,*54
1514066844.0,62219,8.38,73256.8,-2.09,-2.63,-2.59,0,*5C
1514066845.24,62220,8.38,73272.8,-2.09,-2.59,-2.59,0,*5F
1514066846.48,62221,8.38,73262.5,-2.09,-2.63,-2.59,0,*57
1514066847.72,62222,8.38,73268.5,-2.09,-2.59,-2.59,0,*5D
1514066848.97,62223,8.38,73256.8,-2.09,-2.63,-2.59,0,*55
1514066850.22,62224,8.38,73266.5,-2.09,-2.63,-2.63,0,*5B
1514066851.46,62225,8.38,73266.3,-2.09,-2.59,-2.59,0,*5A
1514066852.7,62226,8.38,73258.8,-2.09,-2.59,-2.59,0,*59
1514066853.94,62227,8.38,73266.5,-2.09,-2.59,-2.59,0,*58
1514066855.19,62228,8.38,73254.5,-2.09,-2.59,-2.63,0,*5E
1514066856.43,62229,8.38,73248.5,-2.09,-2.59,-2.59,0,*56
1514066857.67,62230,8.38,73244.3,-2.09,-2.59,-2.59,0,*5E
1514066858.94,62231,8.38,73252.8,-2.11,-2.59,-2.63,0,*5F
1514066860.19,62232,8.38,73258.5,-2.09,-2.63,-2.63,0,*5C
1514066861.43,62233,8.38,73270.8,-2.09,-2.59,-2.59,0,*5D
1514066862.67,62234,8.38,73270.5,-2.09,-2.59,-2.59,0,*5A
1514066863.91,62235,8.38,73272.3,-2.09,-2.59,-2.59,0,*5B
1514066865.16,62236,8.38,73272.3,-2.09,-2.63,-2.63,0,*58
1514066866.41,62237,8.38,73272.0,-2.09,-2.59,-2.63,0,*50
1514066867.65,62238,8.38,73260.0,-2.09,-2.59,-2.51,0,*5E
1514066868.92,62239,8.38,73234.0,-2.07,-2.59,-2.55,0,*55
1514066870.2,62240,8.38,73234.0,-2.07,-2.55,-2.55,0,*57
1514066871.48,62241,8.38,73226.8,-2.07,-2.55,-2.59,0,*5A
1514066872.75,62242,8.38,73224.0,-2.07,-2.55,-2.55,0,*55
1514066874.03,62243,8.38,73218.5,-2.07,-2.55,-2.55,0,*54
1514066875.3,62244,8.38,73206.0,-2.07,-2.59,-2.55,0,*5F
1514066876.58,62245,8.38,73186.8,-2.07,-2.55,-2.55,0,*52
1514066877.83,62246,8.38,73154.8,-2.05,-2.55,-2.55,0,*53
1514066879.11,62247,8.38,73116.3,-2.07,-2.55,-2.55,0,*50
1514066880.38,62248,8.38,73110.8,-2.07,-2.55,-2.55,0,*5F
1514066881.66,62249,8.38,73136.8,-2.07,-2.55,-2.55,0,*5E
1514066882.94,62250,8.38,73166.8,-2.07,-2.55,-2.55,0,*56
1514066884.18,62251,8.38,73186.5,-2.09,-2.59,-2.59,0,*59
1514066885.45,62252,8.38,73192.0,-2.07,-2.55,-2.55,0,*54
1514066886.69,62253,8.38,73196.3,-2.09,-2.59,-2.59,0,*5B
1514066887.93,62254,8.38,73208.8,-2.09,-2.59,-2.59,0,*5C
1514066889.18,62255,8.38,73212.5,-2.09,-2.59,-2.51,0,*55
1514066890.42,62256,8.38,73222.8,-2.07,-2.59,-2.43,0,*5B
1514066891.67,62257,8.38,73208.8,-2.05,-2.59,-2.55,0,*5F
1514066892.94,62258,8.38,73186.5,-2.07,-2.59,-2.55,0,*52
1514066894.22,62259,8.38,73168.0,-2.07,-2.55,-2.55,0,*5F
1514066895.47,62260,8.38,73276.0,-2.09,-2.63,-2.59,0,*52
1514066896.75,62261,8.38,73180.8,-2.07,-2.55,-2.47,0,*57
1514066897.96,62262,8.38,73152.8,-2.05,-2.59,-2.43,0,*5E
1514066899.24,62263,8.38,73204.0,-2.07,-2.55,-2.55,0,*56
1514066900.52,62264,8.38,73232.3,-2.07,-2.55,-2.55,0,*51
1514066901.77,62265,8.38,73264.5,-2.05,-2.55,-2.55,0,*52
1514066903.01,62266,8.38,73256.5,-2.05,-2.59,-2.47,0,*5E
1514066904.29,62267,8.38,73292.8,-2.07,-2.55,-2.47,0,*51
1514066905.54,62268,8.38,73246.8,-2.05,-2.55,-2.55,0,*5F
1514066906.81,62269,8.38,73226.5,-2.07,-2.59,-2.47,0,*53
1514066908.06,62270,8.38,73272.5,-2.05,-2.55,-2.55,0,*56
1514066909.32,62271,8.38,73266.5,-2.05,-2.47,-2.55,0,*54
1514066910.57,62272,8.38,73270.0,-2.05,-2.47,-2.55,0,*57
1514066911.85,62273,8.38,73262.3,-2.07,-2.55,-2.55,0,*57
1514066913.12,62274,8.38,73276.3,-2.07,-2.55,-2.55,0,*50
1514066914.38,62275,8.38,73280.8,-2.05,-2.55,-2.55,0,*53
1514066915.65,62276,8.38,73256.8,-2.07,-2.55,-2.55,0,*52
1514066916.93,62277,8.38,73244.5,-2.07,-2.55,-2.47,0,*50
1514066918.21,62278,8.38,73260.5,-2.07,-2.55,-2.47,0,*5F
1514066919.46,62279,8.38,73242.5,-2.05,-2.55,-2.55,0,*5F
1514066920.73,62280,8.38,73230.8,-2.07,-2.55,-2.55,0,*5B
1514066921.99,62281,8.38,73226.0,-2.05,-2.47,-2.55,0,*5B
1514066923.26,62282,8.38,73210.0,-2.07,-2.55,-2.55,0,*59
1514066924.51,62283,8.38,73204.0,-2.05,-2.55,-2.59,0,*56
1514066925.76,62284,8.38,73230.5,-2.05,-2.55,-2.55,0,*5D
1514066927.04,62285,8.38,73230.5,-2.07,-2.55,-2.55,0,*5E
1514066928.31,62286,8.38,73238.0,-2.07,-2.59,-2.55,0,*51
1514066929.56,62287,8.38,73232.5,-2.05,-2.55,-2.55,0,*5E
1514066930.83,62288,8.38,73228.0,-2.07,-2.59,-2.55,0,*5F